T7RCW EDDH-EKCH

Flight info

Callsign T7RCW
Flight time 0h 36m
Altitude 23000
Route LUGEG3G/33 LUGEG P605 GESKA/N0424F220 Z711 MONAK
Aircraft C25C/M-SDE2E3FGHRWXY/LB1

Departure

Time 2026-04-23 18:15
Airport Hamburg Helmut Schmidt Airport (EDDH)

Arrival

Time 2026-04-23 18:51
Airport Copenhagen Kastrup Airport (EKCH)
Time Latitude Longitude Altitude Speed Heading
2026-04-23 17:46 53.62707 9.98922 40 ft 0 kts 62°
2026-04-23 18:09 53.62720 9.98941 40 ft 4 kts 22°
2026-04-23 18:09 53.62769 9.98945 40 ft 11 kts 352°
2026-04-23 18:09 53.62849 9.98927 41 ft 11 kts
2026-04-23 18:10 53.62909 9.98997 41 ft 11 kts 48°
2026-04-23 18:10 53.62962 9.99100 41 ft 12 kts 50°
2026-04-23 18:10 53.63014 9.99207 41 ft 12 kts 50°
2026-04-23 18:10 53.63077 9.99285 42 ft 10 kts 24°
2026-04-23 18:11 53.63126 9.99310 42 ft 4 kts 13°
2026-04-23 18:11 53.63130 9.99311 42 ft 0 kts 14°
2026-04-23 18:12 53.63136 9.99314 42 ft 0 kts 14°
2026-04-23 18:12 53.63151 9.99320 42 ft 7 kts 14°
2026-04-23 18:12 53.63197 9.99340 44 ft 6 kts 13°
2026-04-23 18:13 53.63231 9.99352 44 ft 3 kts 11°
2026-04-23 18:13 53.63380 9.99301 44 ft 14 kts 331°
2026-04-23 18:13 53.63389 9.99292 44 ft 0 kts 334°
2026-04-23 18:14 53.63402 9.99282 44 ft 10 kts 333°
2026-04-23 18:14 53.63625 9.99090 43 ft 78 kts 333°
2026-04-23 18:14 53.64376 9.98496 411 ft 145 kts 331°
2026-04-23 18:15 53.65393 9.97654 1283 ft 182 kts 328°
2026-04-23 18:15 53.66532 9.96605 2236 ft 185 kts 333°
2026-04-23 18:15 53.67700 9.95596 3166 ft 192 kts 334°
2026-04-23 18:15 53.68936 9.94733 3904 ft 199 kts 349°
2026-04-23 18:16 53.70314 9.94706 4389 ft 195 kts 358°
2026-04-23 18:16 53.71680 9.94685 4735 ft 200 kts 359°
2026-04-23 18:16 53.73040 9.95350 4930 ft 212 kts 24°
2026-04-23 18:17 53.74892 9.99436 5071 ft 236 kts 57°
2026-04-23 18:17 53.75608 10.01940 5483 ft 237 kts 59°
2026-04-23 18:17 53.76333 10.04506 5956 ft 246 kts 58°
2026-04-23 18:17 53.77079 10.07110 6716 ft 246 kts 58°
2026-04-23 18:18 53.77839 10.09726 7372 ft 249 kts 58°
2026-04-23 18:18 53.78600 10.12376 8035 ft 253 kts 58°
2026-04-23 18:18 53.79375 10.15063 9004 ft 255 kts 58°
2026-04-23 18:18 53.80173 10.17833 9925 ft 270 kts 58°
2026-04-23 18:19 53.80998 10.20716 10955 ft 274 kts 59°
2026-04-23 18:19 53.81836 10.23631 11974 ft 278 kts 59°
2026-04-23 18:19 53.82671 10.26563 12970 ft 282 kts 59°
2026-04-23 18:19 53.83625 10.29474 13929 ft 282 kts 47°
2026-04-23 18:20 53.85080 10.31683 14822 ft 282 kts 34°
2026-04-23 18:20 53.86625 10.33781 15679 ft 288 kts 36°
2026-04-23 18:20 53.88130 10.36077 16531 ft 294 kts 41°
2026-04-23 18:20 53.89600 10.38541 17390 ft 299 kts 41°
2026-04-23 18:21 53.91101 10.41015 18242 ft 304 kts 40°
2026-04-23 18:21 53.92654 10.43507 19025 ft 309 kts 40°
2026-04-23 18:21 53.94221 10.46033 19823 ft 312 kts 40°
2026-04-23 18:21 53.95805 10.48595 20652 ft 316 kts 40°
2026-04-23 18:22 53.97406 10.51203 21364 ft 324 kts 40°
2026-04-23 18:22 53.99077 10.53910 21790 ft 341 kts 40°
2026-04-23 18:22 54.00841 10.56772 22056 ft 360 kts 40°
2026-04-23 18:22 54.02688 10.59785 22332 ft 376 kts 40°
2026-04-23 18:23 54.03955 10.61853 22518 ft 386 kts 40°
2026-04-23 18:23 54.08614 10.69465 23120 ft 404 kts 40°
2026-04-23 18:24 54.12731 10.76208 23206 ft 417 kts 40°
2026-04-23 18:24 54.14828 10.79659 23204 ft 418 kts 40°
2026-04-23 18:24 54.16903 10.83075 23206 ft 411 kts 40°
2026-04-23 18:25 54.20975 10.89785 23201 ft 405 kts 40°
2026-04-23 18:25 54.23003 10.93130 23199 ft 405 kts 40°
2026-04-23 18:25 54.25023 10.96479 23198 ft 404 kts 40°
2026-04-23 18:25 54.27017 10.99778 23192 ft 404 kts 40°
2026-04-23 18:26 54.29032 11.03125 23193 ft 403 kts 40°
2026-04-23 18:26 54.31049 11.06470 23192 ft 403 kts 40°
2026-04-23 18:26 54.33058 11.09818 23187 ft 403 kts 40°
2026-04-23 18:26 54.35069 11.13165 23186 ft 403 kts 40°
2026-04-23 18:27 54.37076 11.16515 23184 ft 403 kts 40°
2026-04-23 18:27 54.39079 11.19863 23183 ft 402 kts 40°
2026-04-23 18:27 54.41084 11.23216 23182 ft 402 kts 40°
2026-04-23 18:27 54.43082 11.26568 23181 ft 402 kts 40°
2026-04-23 18:28 54.45081 11.29922 23179 ft 402 kts 40°
2026-04-23 18:28 54.47076 11.33288 23177 ft 402 kts 40°
2026-04-23 18:28 54.49069 11.36652 23173 ft 402 kts 40°
2026-04-23 18:28 54.51072 11.39996 23173 ft 401 kts 39°
2026-04-23 18:29 54.53081 11.43328 23170 ft 401 kts 40°
2026-04-23 18:29 54.55069 11.46700 23168 ft 401 kts 40°
2026-04-23 18:29 54.57053 11.50089 23169 ft 401 kts 40°
2026-04-23 18:29 54.59041 11.53456 23165 ft 401 kts 40°
2026-04-23 18:30 54.61029 11.56825 23165 ft 401 kts 40°
2026-04-23 18:30 54.63018 11.60200 23163 ft 401 kts 40°
2026-04-23 18:30 54.65001 11.63588 23163 ft 401 kts 40°
2026-04-23 18:30 54.66983 11.66965 23156 ft 401 kts 40°
2026-04-23 18:31 54.68938 11.70307 23159 ft 400 kts 40°
2026-04-23 18:31 54.70945 11.73737 23152 ft 401 kts 40°
2026-04-23 18:31 54.72898 11.77083 23153 ft 400 kts 40°
2026-04-23 18:31 54.74902 11.80523 23150 ft 400 kts 40°
2026-04-23 18:32 54.76851 11.83869 22856 ft 399 kts 40°
2026-04-23 18:32 54.78816 11.87252 22278 ft 399 kts 40°
2026-04-23 18:32 54.80786 11.90639 21692 ft 398 kts 40°
2026-04-23 18:32 54.82738 11.94017 21111 ft 395 kts 41°
2026-04-23 18:33 54.84682 11.97372 20537 ft 392 kts 41°
2026-04-23 18:33 54.86606 12.00706 19980 ft 390 kts 41°
2026-04-23 18:33 54.88521 12.04019 19433 ft 386 kts 41°
2026-04-23 18:33 54.90409 12.07300 18897 ft 382 kts 41°
2026-04-23 18:34 54.92279 12.10548 18359 ft 378 kts 41°
2026-04-23 18:34 54.94130 12.13769 17751 ft 375 kts 41°
2026-04-23 18:34 54.95964 12.16967 17157 ft 372 kts 41°
2026-04-23 18:34 54.97783 12.20138 16569 ft 368 kts 41°
2026-04-23 18:35 54.99582 12.23287 15998 ft 366 kts 41°
2026-04-23 18:35 55.01371 12.26410 15437 ft 363 kts 41°
2026-04-23 18:35 55.03143 12.29521 14883 ft 360 kts 41°
2026-04-23 18:35 55.04905 12.32606 14346 ft 357 kts 40°
2026-04-23 18:36 55.06637 12.35659 13795 ft 351 kts 40°
2026-04-23 18:36 55.08347 12.38660 13197 ft 345 kts 40°
2026-04-23 18:36 55.09985 12.41558 12607 ft 326 kts 40°
2026-04-23 18:36 55.11545 12.44308 12053 ft 312 kts 40°
2026-04-23 18:37 55.13043 12.46952 11507 ft 301 kts 39°
2026-04-23 18:37 55.14497 12.49514 10997 ft 292 kts 40°
2026-04-23 18:37 55.15906 12.52006 10513 ft 284 kts 39°
2026-04-23 18:37 55.17282 12.54447 10035 ft 279 kts 40°
2026-04-23 18:38 55.18635 12.56838 9510 ft 275 kts 39°
2026-04-23 18:38 55.19969 12.59212 8991 ft 273 kts 40°
2026-04-23 18:38 55.21300 12.61566 8447 ft 272 kts 40°
2026-04-23 18:38 55.22623 12.63927 7886 ft 271 kts 40°
2026-04-23 18:39 55.24110 12.65846 7284 ft 263 kts 22°
2026-04-23 18:39 55.25720 12.67329 6679 ft 261 kts 26°
2026-04-23 18:39 55.27292 12.68903 6047 ft 259 kts 25°
2026-04-23 18:39 55.28857 12.70412 5528 ft 254 kts 25°
2026-04-23 18:40 55.30397 12.71895 5072 ft 249 kts 24°
2026-04-23 18:40 55.31867 12.73324 4735 ft 235 kts 25°
2026-04-23 18:40 55.33310 12.74614 4411 ft 229 kts 15°
2026-04-23 18:40 55.34855 12.74838 4132 ft 223 kts 352°
2026-04-23 18:41 55.36310 12.73976 3909 ft 222 kts 328°
2026-04-23 18:41 55.37450 12.72171 3775 ft 222 kts 309°
2026-04-23 18:41 55.38399 12.70041 3646 ft 221 kts 310°
2026-04-23 18:41 55.39359 12.67921 3521 ft 221 kts 309°
2026-04-23 18:42 55.40317 12.65799 3395 ft 221 kts 309°
2026-04-23 18:42 55.41270 12.63672 3267 ft 222 kts 309°
2026-04-23 18:42 55.42171 12.61479 3135 ft 222 kts 297°
2026-04-23 18:42 55.42489 12.58819 3046 ft 224 kts 275°
2026-04-23 18:43 55.42152 12.56154 3009 ft 228 kts 249°
2026-04-23 18:43 55.41183 12.53910 2996 ft 236 kts 228°
2026-04-23 18:43 55.39977 12.51943 3002 ft 238 kts 226°
2026-04-23 18:43 55.38722 12.50023 3006 ft 240 kts 225°
2026-04-23 18:44 55.37464 12.48086 3011 ft 239 kts 229°
2026-04-23 18:44 55.36794 12.45563 2996 ft 227 kts 270°
2026-04-23 18:44 55.37243 12.43015 2990 ft 219 kts 306°
2026-04-23 18:44 55.38252 12.40999 2995 ft 221 kts 313°
2026-04-23 18:45 55.39312 12.39085 2992 ft 221 kts 315°
2026-04-23 18:45 55.40399 12.37182 3000 ft 220 kts 315°
2026-04-23 18:45 55.41732 12.35975 2988 ft 222 kts 352°
2026-04-23 18:45 55.43228 12.36491 2986 ft 221 kts 18°
2026-04-23 18:46 55.44573 12.37814 2985 ft 225 kts 32°
2026-04-23 18:46 55.45769 12.39616 2986 ft 226 kts 37°
2026-04-23 18:46 55.46947 12.41426 2985 ft 223 kts 37°
2026-04-23 18:46 55.48112 12.43229 2908 ft 224 kts 37°
2026-04-23 18:47 55.49277 12.45028 2626 ft 219 kts 37°
2026-04-23 18:47 55.50400 12.46762 2336 ft 210 kts 37°
2026-04-23 18:47 55.51472 12.48424 2054 ft 201 kts 37°
2026-04-23 18:47 55.52508 12.49996 1806 ft 188 kts 37°
2026-04-23 18:48 55.53441 12.51449 1542 ft 170 kts 38°
2026-04-23 18:48 55.54303 12.52767 1312 ft 159 kts 37°
2026-04-23 18:48 55.55104 12.54011 1098 ft 145 kts 37°
2026-04-23 18:48 55.55825 12.55110 904 ft 132 kts 38°
2026-04-23 18:49 55.56505 12.56167 730 ft 129 kts 38°
2026-04-23 18:49 55.57144 12.57149 575 ft 113 kts 39°
2026-04-23 18:49 55.57717 12.58027 431 ft 107 kts 39°
2026-04-23 18:49 55.58265 12.58876 294 ft 102 kts 38°
2026-04-23 18:50 55.58620 12.59428 206 ft 102 kts 40°
2026-04-23 18:50 55.59318 12.60508 34 ft 98 kts 39°
2026-04-23 18:50 55.59770 12.61203 12 ft 71 kts 41°
2026-04-23 18:50 55.60089 12.61701 17 ft 53 kts 42°
2026-04-23 18:51 55.60355 12.62105 13 ft 48 kts 38°
2026-04-23 18:51 55.60588 12.62326 20 ft 28 kts 13°
2026-04-23 18:51 55.60720 12.62377 20 ft 17 kts 10°
2026-04-23 18:51 55.60829 12.62462 20 ft 17 kts 36°
2026-04-23 18:52 55.60864 12.62514 20 ft 0 kts 41°
2026-04-23 18:52 55.60865 12.62515 20 ft 2 kts 41°
2026-04-23 18:52 55.60913 12.62591 17 ft 10 kts 40°
2026-04-23 18:53 55.60949 12.62653 16 ft 11 kts 43°
2026-04-23 18:53 55.61027 12.62766 16 ft 12 kts 42°
2026-04-23 18:53 55.61072 12.62836 16 ft 13 kts 40°
2026-04-23 18:53 55.61154 12.62964 21 ft 11 kts 41°
2026-04-23 18:54 55.61219 12.63063 20 ft 14 kts 40°
2026-04-23 18:54 55.61290 12.63176 22 ft 15 kts 41°
2026-04-23 18:54 55.61347 12.63263 20 ft 17 kts 40°
2026-04-23 18:54 55.61440 12.63406 19 ft 18 kts 41°
2026-04-23 18:55 55.61539 12.63559 17 ft 19 kts 42°
2026-04-23 18:55 55.61637 12.63709 18 ft 18 kts 39°
2026-04-23 18:55 55.61731 12.63854 21 ft 17 kts 41°
2026-04-23 18:55 55.61816 12.63989 20 ft 17 kts 42°
2026-04-23 18:56 55.61917 12.64114 20 ft 18 kts 25°
2026-04-23 18:56 55.62043 12.64216 13 ft 21 kts 25°
2026-04-23 18:56 55.62167 12.64319 10 ft 11 kts 26°
2026-04-23 18:56 55.62229 12.64359 10 ft 10 kts 356°
2026-04-23 18:57 55.62276 12.64234 9 ft 17 kts 278°
2026-04-23 18:57 55.62277 12.64021 10 ft 17 kts 270°
2026-04-23 18:57 55.62275 12.63831 13 ft 15 kts 267°
2026-04-23 18:57 55.62271 12.63649 15 ft 15 kts 269°
2026-04-23 18:58 55.62269 12.63482 18 ft 13 kts 270°
2026-04-23 18:58 55.62268 12.63329 20 ft 13 kts 269°
2026-04-23 18:58 55.62271 12.63158 19 ft 15 kts 287°
2026-04-23 18:58 55.62306 12.63041 19 ft 7 kts 263°
2026-04-23 18:59 55.62263 12.62984 19 ft 9 kts 199°
2026-04-23 18:59 55.62218 12.62958 21 ft 0 kts 198°